EW9355 Weather Reports


Display with metric or nautical units.
time (UTC)temp
F
wind
direction
speed
MPH
gust
MPH
rain 1hr
in
rain 24hr
in
rain mn
in
humidity
%
barometer
mb
20200219111628 44 74 0.0 5.0 0.00 0.28 0.00 78 1024.8
20200219110057 44 44 0.0 6.0 0.00 0.28 0.00 78 1024.6
20200219104617 44 9 0.0 4.0 0.00 0.28 0.00 77 1024.3
20200219103110 45 22 0.0 4.0 0.00 0.28 0.00 77 1024.2
20200219101551 45 30 0.0 4.0 0.00 0.28 0.00 77 1024.4
20200219100054 45 88 0.0 3.0 0.00 0.28 0.00 77 1024.2
20200219094557 45 72 1.0 7.0 0.00 0.28 0.00 76 1024.1
20200219093058 46 332 1.0 6.0 0.00 0.28 0.00 75 1024.3
20200219090042 46 79 0.0 3.0 0.00 0.28 0.00 74 1024.4
20200219084522 47 99 0.0 5.0 0.00 0.28 0.00 74 1024.5
20200219083132 47 62 0.0 6.0 0.00 0.28 0.00 74 1024.6
20200219081542 47 114 1.0 8.0 0.00 0.28 0.00 74 1024.4
20200219080025 47 56 1.0 4.0 0.00 0.28 0.00 74 1024.4
20200219074516 47 65 1.0 9.0 0.00 0.28 0.00 73 1024.3
20200219073020 47 21 0.0 4.0 0.00 0.28 0.00 74 1024.2
20200219071511 48 26 1.0 5.0 0.00 0.28 0.00 73 1024.5
20200219070008 48 175 0.0 4.0 0.00 0.28 0.00 73 1024.8
20200219064509 48 132 1.0 6.0 0.00 0.28 0.00 73 1024.9
20200219063009 48 63 1.0 4.0 0.00 0.28 0.00 72 1024.7
20200219061501 49 65 0.0 5.0 0.00 0.28 0.00 72 1024.7
20200219060252 49 92 0.0 8.0 0.00 0.28 0.00 71 1024.7
20200219054557 50 80 0.0 5.0 0.00 0.28 0.28 70 1024.8
20200219053119 50 355 2.0 7.0 0.00 0.28 0.28 70 1024.5
20200219051609 51 44 0.0 4.0 0.00 0.28 0.28 70 1024.2
20200219050209 51 149 1.0 9.0 0.00 0.28 0.28 69 1024.2
20200219044630 51 96 1.0 6.0 0.00 0.28 0.28 69 1024.1
20200219043124 51 80 1.0 6.0 0.00 0.28 0.28 68 1024.0
20200219041611 52 78 1.0 8.0 0.00 0.28 0.28 68 1023.8
20200219040156 52 71 1.0 6.0 0.00 0.28 0.28 68 1023.9
20200219034621 52 83 0.0 9.0 0.00 0.28 0.28 68 1023.6
20200219033103 52 119 1.0 6.0 0.00 0.28 0.28 67 1023.4
20200219031622 52 71 2.0 4.0 0.00 0.28 0.28 68 1023.0
20200219030047 52 79 0.0 2.0 0.00 0.28 0.28 68 1023.0
20200219024557 53 81 0.0 2.0 0.00 0.28 0.28 66 1022.8
20200219023044 53 82 0.0 3.0 0.00 0.28 0.28 65 1022.4
20200219021545 53 90 1.0 3.0 0.00 0.28 0.28 64 1022.1
20200219020102 53 85 1.0 5.0 0.00 0.28 0.28 64 1021.5
20200219014606 53 349 1.0 5.0 0.00 0.28 0.28 64 1021.4
20200219013053 53 66 0.0 8.0 0.00 0.28 0.28 65 1021.6
20200219011557 53 40 1.0 4.0 0.00 0.28 0.28 67 1021.7
20200219010103 53 63 1.0 4.0 0.00 0.28 0.28 69 1021.8
20200219004527 53 37 0.0 4.0 0.00 0.28 0.28 70 1021.4
20200219003030 53 91 0.0 2.0 0.00 0.28 0.28 70 1021.1
20200219001537 53 92 0.0 1.0 0.00 0.28 0.28 70 1020.8
20200219000047 53 92 0.0 0.0 0.00 0.28 0.28 70 1020.8
20200218234607 53 92 0.0 0.0 0.00 0.28 0.28 68 1020.6
20200218233120 53 92 0.0 1.0 0.00 0.28 0.28 68 1020.2
20200218231553 53 92 0.0 4.0 0.00 0.28 0.28 67 1019.7
20200218230056 53 92 0.0 2.0 0.00 0.28 0.28 68 1019.5
20200218224520 53 92 0.0 3.0 0.00 0.28 0.28 67 1019.0
20200218223032 53 65 1.0 4.0 0.00 0.28 0.28 67 1019.0
20200218221518 53 9 0.0 5.0 0.00 0.28 0.28 68 1019.0
20200218220032 53 69 1.0 6.0 0.00 0.28 0.28 68 1018.4
20200218214520 52 55 1.0 8.0 0.00 0.28 0.28 70 1018.3
20200218213015 52 74 0.0 2.0 0.00 0.28 0.28 73 1019.1
20200218211527 52 74 1.0 6.0 0.00 0.28 0.28 72 1018.8
20200218210016 51 360 2.0 9.0 0.00 0.28 0.28 78 1018.2
20200218204547 50 9 0.0 6.0 0.00 0.28 0.28 84 1017.7
20200218203015 49 63 1.0 5.0 0.00 0.28 0.28 85 1017.2
20200218201535 49 360 1.0 5.0 0.03 0.28 0.28 88 1016.9
20200218200019 48 36 1.0 10.0 0.03 0.28 0.28 89 1017.5
20200218194513 48 360 3.0 11.0 0.03 0.28 0.28 91 1017.1
20200218193018 48 347 0.0 5.0 0.06 0.28 0.28 92 1017.1
20200218191514 48 311 1.0 3.0 0.23 0.26 0.26 91 1018.7
20200218190026 47 311 0.0 4.0 0.23 0.26 0.26 91 1018.3
20200218184517 47 306 0.0 5.0 0.23 0.26 0.26 89 1018.3
20200218183007 48 127 2.0 10.0 0.18 0.21 0.21 85 1016.0
20200218181501 49 16 0.0 6.0 0.00 0.03 0.03 78 1017.9
20200218180124 50 332 2.0 5.0 0.00 0.03 0.03 79 1017.5
20200218174741 49 15 1.0 8.0 0.00 0.03 0.03 80 1017.4
20200218173149 50 5 4.0 11.0 0.00 0.03 0.03 78 1017.7
20200218171617 50 360 3.0 9.0 0.00 0.03 0.03 78 1018.2
20200218170219 50 5 3.0 9.0 0.00 0.03 0.03 79 1017.3
20200218164622 50 340 3.0 12.0 0.00 0.03 0.03 79 1017.1
20200218163122 50 5 2.0 12.0 0.00 0.03 0.03 80 1016.8
20200218161619 50 26 3.0 9.0 0.00 0.03 0.03 80 1016.7
20200218160154 50 342 4.0 11.0 0.00 0.03 0.03 82 1016.6
20200218154547 51 344 4.0 13.0 0.00 0.03 0.03 84 1016.4
20200218153115 51 5 4.0 14.0 0.00 0.03 0.03 85 1016.0
20200218151626 51 5 1.0 9.0 0.01 0.03 0.03 89 1015.7
20200218150056 52 13 3.0 10.0 0.01 0.03 0.03 91 1015.3
20200218144540 53 355 2.0 9.0 0.01 0.03 0.03 93 1014.5
20200218143034 54 109 0.0 12.0 0.01 0.03 0.03 93 1014.4
20200218141611 56 9 0.0 5.0 0.01 0.02 0.02 94 1014.3
20200218140051 56 12 2.0 5.0 0.02 0.02 0.02 94 1013.9
20200218134524 57 360 1.0 5.0 0.02 0.02 0.02 94 1013.6
20200218133035 57 12 2.0 10.0 0.02 0.02 0.02 93 1013.1
20200218131514 58 15 0.0 7.0 0.01 0.01 0.01 93 1012.7
20200218130006 58 75 0.0 3.0 0.00 0.00 0.00 93 1012.4
20200218124515 58 76 0.0 4.0 0.00 0.00 0.00 92 1011.8
20200218123143 0 0.0 0.0 0.00 0.00 0.00 1011.5
20200218121647 0 0.0 0.0 0.00 0.00 0.00 1011.6
20200218120124 0 0.0 0.0 0.00 0.00 0.00 1011.2
20200218114634 60 82 0.0 2.0 0.00 0.00 0.00 84 1010.9
20200218113129 61 90 0.0 5.0 0.00 0.00 0.00 82 1010.8